www.pogodaiklimat.ru

Погода и климат >> Архив погоды >> Россия >> Магаданская область >> Эвенск


ПОГОДА в Эвенске

  • Прогноз погоды в Эвенске
  • Монитор погоды в Эвенске

АРХИВ ПОГОДЫ в Эвенске

Время (UTC), дата Ветер
(напр.,м/с)
 
Видим.   Явления Облачность Т
(С)
Тd
(С)
f
(%)
Тe
(С)
Тes
(С)
Комфортность P
(гПа)
Po
(гПа)
Тmin
(С)
Tmax
(С)
R
(мм)
R24
(мм)
S
(см)
00 13.09 ЮЗ 3 50 км 4/0
[Ci fib]
+8.7 -3.0 44 +7 +11 1014.6 1013.1
03 13.09 ЮЗ 4 50 км ясно +8.8 -2.5 45 +6 +10 1014.2 1012.7
06 13.09 ЮЗ 4 50 км ясно +8.6 +0.8 58 +6 +6 1013.7 1012.2
09 13.09 СЗ 2 50 км ясно +1.4 +0.2 92 -2 -2 1014.1 1012.7 +9.1
12 13.09 СЗ 3 50 км ясно -1.6 -2.4 94 -7 -7 1014.8 1013.3
15 13.09 СЗ 2 50 км ясно -2.5 -3.4 94 -7 -7 1014.4 1012.9
18 13.09 СЗ 3 50 км ясно -3.1 -4.3 91 -8 -8 1014.5 1013.0
21 13.09 СЗ 3 50 км 3/0
[Ac trans]
+0.1 -2.8 81 -4 -4 1014.3 1012.8 -3.2
00 14.09 Ю 2 50 км 8/0
[Ac trans Cc]
+8.7 +3.0 67 +7 +11 1013.7 1012.3
03 14.09 Ю 2 50 км 6/0
[Ac As Ci sp]
+8.8 +4.6 75 +7 +10 1012.4 1011.0
06 14.09 ЮЗ 3 50 км 9/0
[Ac As]
+9.2 +4.9 74 +7 +7 1011.6 1010.1
09 14.09 ЮЗ 2 50 км 9/0
[Ac As]
+8.5 +4.9 78 +7 +7 1011.6 1010.2 +10.1
12 14.09 ЮЗ 2 50 км 10/0
[Ac und]
+8.2 +4.4 77 +6 +6 1011.8 1010.3
15 14.09 СЗ 2 50 км 10/0
[Ac und]
+5.9 +4.2 89 +3 +3 1011.4 1009.9
18 14.09 СЗ 2 50 км 10/0
[Ac und]
+5.8 +4.0 88 +3 +3 1011.0 1009.5
21 14.09 СЗ 3 50 км 10/0
[Ac und]
+6.7 +3.8 82 +4 +4 1011.2 1009.7 +5.5
00 15.09 СЗ 2 50 км 10/0
[Ac und]
+9.8 +2.6 61 +9 +10 1010.9 1009.5
03 15.09 СЗ 2 50 км 9/0
[Ac cast]
+13.1 +0.4 42 +13 +14 1009.5 1008.1
06 15.09 штиль 0 50 км 4/0
[Ac cast]
+11.9 +3.6 57 +12 +12 1009.2 1007.8
09 15.09 СЗ 2 50 км 4/0
[Ac und]
+4.8 +0.8 75 +2 +2 1010.7 1009.2 +13.6
12 15.09 СЗ 3 50 км 4/0
[Ac und]
+1.4 -0.8 85 -3 -3 1012.0 1010.5
15 15.09 СЗ 3 50 км 4/0
[Ac und]
-0.3 -2.0 88 -5 -5 1012.9 1011.5
18 15.09 СЗ 3 50 км 4/0
[Ac und]
-0.8 -2.2 90 -6 -6 1014.1 1012.6
21 15.09 СЗ 3 50 км 8/1 600 м
[Sc Ac und Ci fib]
+3.6 -0.5 75 -0 0 1015.5 1014.0 -0.8
00 16.09 ЮВ 2 50 км 9/8 1000 м
[Cb calv Ac trans]
+9.5 +3.9 68 +8 +9 1016.4 1014.9
03 16.09 ЮЗ 1 20 км 10/10 300 м
[Cb calv]
+9.6 +7.3 86 +9 +9 1016.6 1015.2
06 16.09 ЮВ 1 20 км 10/10 300 м
[Cb calv]
+9.8 +7.3 84 +9 +9 1016.4 1015.0
09 16.09 ЮЗ 2 20 км {ливн. осадки} 10/6 300 м
[Cb calv Ac trans]
+8.4 +7.4 93 +6 +6 1017.0 1015.5 +10.1 0.0
12 16.09 СЗ 2 4000 м дымка 8/8 600 м
[Cb calv]
+2.9 +2.7 99 -0 -0 1017.2 1015.7
15 16.09 СЗ 2 4000 м дымка 8/8 600 м
[Cb calv]
+2.4 +2.4 100 -1 -1 1016.8 1015.3
18 16.09 СЗ 3 4000 м дымка 8/8 600 м
[Cb calv]
+1.8 +1.8 100 -3 -3 1016.3 1014.8
21 16.09 СЗ 1 20 км 9/8 300 м
[Cb calv Ac trans]
+3.8 +3.7 99 +2 +2 1016.1 1014.6 +1.5
00 17.09 Ю 2 10 км 8/4 300 м
[Cb calv Ac trans Ci fib]
+10.5 +6.3 75 +9 +11 1015.3 1013.9
03 17.09 штиль 0 50 км 4/3 600 м
[Cb calv Ac cast]
+11.0 +6.1 72 +11 +14 1013.8 1012.3
06 17.09 З 2 50 км ясно +10.0 +6.2 77 +9 +9 1012.8 1011.3
09 17.09 В 2 50 км ясно +3.7 +2.9 95 +1 +1 1013.0 1011.5 +11.5
12 17.09 СВ 3 50 км ясно +0.9 +0.4 96 -4 -4 1012.4 1010.9
15 17.09 СВ 3 50 км 4/0
[Ac trans]
+2.4 +1.3 92 -2 -2 1011.6 1010.1
18 17.09 СВ 2 50 км 3/0
[Ac trans]
+1.1 -0.1 92 -2 -2 1011.6 1010.1
21 17.09 В 5 50 км 1/1 600 м
[Sc]
+6.4 +3.3 81 +2 +3 1011.5 1010.0 +0.7
00 18.09 СВ 5-10
{11}
50 км 1/1 600 м
[Sc]
+11.6 +4.9 63 +9 +11 1010.9 1009.5
03 18.09 СВ 7-10
{11}
50 км 4/4 1000 м
[Cu med, cong]
+13.2 +2.8 49 +11 +12 1010.3 1008.9
06 18.09 СВ 5
{11}
50 км 4/3 1000 м
[Sc Ac lent]
+12.3 +3.8 56 +10 +10 1010.2 1008.8
09 18.09 С 1 50 км 4/4 1000 м
[]
+9.6 +4.3 70 +9 +9 1010.8 1009.3 +13.5
12 18.09 С 2 50 км 4/4 1000 м
[]
+3.8 0.0 76 +1 +1 1011.3 1009.7
15 18.09 С 3 50 км 4/3 1000 м
[Sc]
+1.4 0.0 90 -3 -3 1011.5 1009.9
18 18.09 В 2 50 км 4/3 1000 м
[Sc]
-0.7 -1.3 96 -5 -5 1011.0 1009.6
21 18.09 С 2 50 км 10/10 1000 м
[Sc]
+3.3 +1.1 85 0 0 1011.2 1009.7 -0.7
00 19.09 З 1 50 км 10/10 1000 м
[Sc]
+8.6 +3.3 69 +8 +8 1010.9 1009.5
03 19.09 Ю 2 50 км 10/8 600 м
[Cb calv Ac trans]
+9.5 +4.4 70 +8 +8 1010.4 1009.0
06 19.09 ЮЗ 1 50 км 10/10 600 м
[Cb calv]
+9.2 +7.5 89 +9 +9 1010.3 1008.8
09 19.09 штиль 0 4000 м слаб. ливневой дождь 10/10 600 м
[Cb cap]
+7.9 +7.4 97 +7 +7 1010.9 1009.4 +10.0 1
12 19.09 штиль 0 4000 м слаб. ливневой дождь 10/10 600 м
[Cb cap]
+7.2 +6.8 97 +6 +6 1011.2 1009.7
15 19.09 штиль 0 4000 м слаб. ливневой дождь 10/10 600 м
[Cb cap]
+7.1 +6.7 97 +6 +6 1011.5 1010.1
18 19.09 С 5 4000 м слаб. ливневой дождь 10/10 600 м
[Cb cap]
+5.2 +3.9 91 +1 +1 1012.6 1011.1
21 19.09 С 5 50 км {ливн. осадки} 9/6 600 м
[Cb calv Ac trans]
+5.5 +3.1 85 +1 +1 1014.1 1012.6 +4.3 7

 

Местоположение метеостанции Эвенск (Магаданская область, Россия): широта 61.92 долгота 159.20 высота над уровнем моря 12 м.

В архиве по умолчанию представлена погода в Эвенске за последнюю неделю. Архивные данные за месяц целиком и за предыдущие месяцы, начиная с января 2011 года, Вы можете получить, выбрав интересующий диапазон дат из раскрывающегося списка и нажав кнопку "Ввод!".


*Определитесь, кто Вы:
робот инопланетянин человек

Внимание! Время в таблицах - всемирное. Для получения местного времени необходимо прибавить поправку, которая равна 11 ч.

Смотрите также архив погоды в соседних городах и на ближайших метеорологических станциях:

Погода в Лабазной (Магаданская область, Россия) (158 км)
Погода в Омсукчане (Магаданская область, Россия) (188 км)
Погода на Шелихова (Магаданская область, Россия) (225 км)
Погода в Чемурнауте (Камчатский край, Россия) (242 км)
Погода в Кегали (Магаданская область, Россия) (275 км)
Погода в Палане (Камчатский край, Россия) (318 км)
Погода в Балыгычане (Магаданская область, Россия) (340 км)
Погода в Верхне-Пенжино (Камчатский край, Россия) (359 км)
Погода в Среднекане (Магаданская область, Россия) (363 км)
Погода в Оссоре (Камчатский край, Россия) (364 км)

Пояснения к столбцам:

Ветер - указаны скорость ветра в м/с - средняя за 10 мин, порывы в срок и между сроками (в фигурных скобках) и направление, откуда дует ветер: С - северный, СВ - северо-восточный, В - восточный, ЮВ - юго-восточный, Ю - южный, ЮЗ - юго-западный, З - западный, СЗ - северо-западный.
Видимость - горизонтальная дальность видимости в метрах или километрах. При видимости от 1 до 10 км при отсутствии осадков обычно наблюдается дымка, при ухудшении видимости до 1 км и менее - туман. В сухую погоду видимость может ухудшаться дымом, пылью или мглою.
Явления - указаны атмосферные явления, наблюдавшиеся в срок или в последний час перед сроком; фигурными скобками обозначены явления, наблюдавшиеся между сроками (за 1-3 часа до срока); квадратными скобками обозначены град или гололедные отложения с указанием их диаметра в мм.
Облачность - указаны через наклонную черту общая и нижняя облачность в баллах и высота нижней границы облаков в метрах; квадратными скобками обозначены формы облаков: Ci - перистые, Cs - перисто-слоистые, Cc - перисто-кучевые, Ac - высококучевые, As - высокослоистые, Sc - слоисто-кучевые, Ns - слоисто-дождевые, Cu - кучевые, Cb - кучево-дождевые. Подробнее классификацию облаков см. в Атласе облаков (PDF).
T - Температура воздуха - температура, измеренная на высоте 2 м над землей.
Td - Температура точки росы - температура, при понижении до которой содержащийся в воздухе водяной пар достигнет насыщения.
f - Относительная влажность воздуха - влажноcть воздуха, измеренная на высоте 2 м над землей.
Te - Эффективная температура - температура, которую ощущает одетый по сезону человек в тени. Характеристика душности погоды. При расчете учитывается влияние влажности воздуха и скорости ветра на теплоощущения человека.
Tes - Эффективная температура на солнце - температура, которую ощущает человек, с поправкой на солнечный нагрев. Характеристика знойности погоды. Зависит от высоты солнца над горизонтом, облачности и скорости ветра. Ночью, в пасмурную погоду, а также при ветре 12 м/с и более поправка равна нулю.
P - Атмосферное давление - приведенное к уровню моря атмосферное давление.
Po - Атмосферное давление - измеренное на уровне метеостанции атмосферное давление.
Tmin - Минимальная температура - минимум температуры воздуха на высоте 2 м над землей.
Tmax - Максимальная температура - максимум температуры воздуха на высоте 2 м над землей.
R - Количество осадков - Количество выпавших осадков за период времени, мм. При наведении курсора мыши на число - период времени, за который выпало указанное количество осадков.
R24 - Количество осадков - Количество выпавших осадков за 24 часа, мм.
S - Снежный покров - Высота снежного покрова, см. При наведении курсора мыши на число - состояние снежного покрова и степень покрытия местности в баллах.